Simultaneous Nadir Overpasses (SNOs) Predictions

Prediction of SNOs between GOES-15 and METOP-C Satellite Orbit:

Table of predicted SNOs for the next 14.0 days since TLE Epoch: 2/28/2025
Index Date Time (GOES-15) GOES-15 Lat,Lon METOP-C Lat,Lon Distance(km) Time Diff (sec)
1 03/01/2025 05:37:19 -0.02, 61.37 0.70, 58.19 362.46 80
2 03/02/2025 05:19:19 -0.01, 61.36 -0.43, 63.19 208.30 80
3 03/03/2025 17:38:18 0.02, 61.32 -0.57, 58.59 310.22 80
4 03/04/2025 17:14:56 0.02, 61.32 0.51, 63.60 259.48 80
5 03/06/2025 05:33:46 -0.03, 61.35 0.49, 59.04 263.72 80
6 03/07/2025 05:15:45 -0.03, 61.35 -0.65, 64.04 306.24 80
7 03/08/2025 17:34:44 0.04, 61.31 -0.38, 59.45 212.65 80
8 03/09/2025 17:11:22 0.03, 61.32 0.72, 64.45 356.73 80
9 03/11/2025 05:30:11 -0.04, 61.36 0.26, 59.89 167.24 80
10 03/12/2025 05:12:10 -0.03, 61.36 -0.84, 64.90 402.92 80
11 03/13/2025 17:31:08 0.04, 61.32 -0.16, 60.30 114.96 80
12 03/14/2025 17:07:47 0.03, 61.32 0.95, 65.31 454.68 80
